Skip Page Navigation
NASA JPL Caltech
NASA Logo - Jet Propulsion Laboratory + View the NASA Portal
+ Center for Near-Earth Object Studies
JPL Home Earth Solar System Stars & Galaxies Technology
JPL Solar System Dynamics
BODIES ORBITS EPHEMERIDES TOOLS PHYSICAL DATA DISCOVERY FAQ SITE MAP
JPL Small-Body Database Browser
Search: [ help ]  
101353 (1998 TC34)
Classification: Main-belt Asteroid          SPK-ID: 2101353
Ephemeris | Orbit Diagram | Orbital Elements | Mission Design | Physical Parameters | Discovery Circumstances | Close-Approach Data ]

[ show orbit diagram ]
Orbital Elements at Epoch 2459200.5 (2020-Dec-17.0) TDB
Reference: JPL 21 (heliocentric ecliptic J2000)
 Element Value Uncertainty (1-sigma)   Units 
e .2237772125417697 3.747e-08  
a 2.35402933755168 8.6355e-09 au
q 1.827251214152816 8.6053e-08 au
i 3.452187769017557 4.0989e-06 deg
node 95.74039467078626 6.6262e-05 deg
peri 275.0977449295622 6.6847e-05 deg
M 62.47231629719624 9.9679e-06 deg
tp 2458971.570720576837
(2020-May-02.07072058)
3.5915e-05 TDB
period 1319.216982451431
3.61
7.2591e-06
1.987e-08
d
yr
n .2728891492368686 1.5016e-09 deg/d
Q 2.880807460950543 1.0568e-08 au
  Orbit Determination Parameters
   # obs. used (total)      670  
   data-arc span      10185 days (27.89 yr)  
   first obs. used      1993-03-24  
   last obs. used      2021-02-10  
   planetary ephem.      DE441  
   SB-pert. ephem.      SB441-N16  
   condition code      0  
   norm. resid. RMS      .53149  
   source      ORB  
   producer      Otto Matic  
   solution date      2021-Apr-13 15:36:23  

Additional Information
 Earth MOID = .829599 au 
 Jupiter MOID = 2.5873 au 
 T_jup = 3.519 
[ show covariance matrix ]

Ephemeris | Orbit Diagram | Orbital Elements | Mission Design | Physical Parameters | Discovery Circumstances | Close-Approach Data ]

Physical Parameter Table
Parameter Symbol Value Units Sigma Reference Notes
absolute magnitude H 16.1   n/a MPO436473  

101353 (1998 TC34)          Discovered 1998-Oct-14 by LONEOS at Anderson Mesa
Reference: 20051019/Numbers.arcLast Updated: 2005-10-26

[ hide close-approach data ]
Close-Approach Data   ...sorted by Date/Time (TDB)
Date/Time (TDB) Time Uncertainty
(days_HH:MM)
Body Nominal Distance (au) Minimum Distance (au) Maximum Distance (au) V-relative (km/s) V-infinity (km/s) JD (TDB) Time Uncertainty (minutes) Semi-major axis (km) Semi-minor axis (km) range-LOV angle (deg) N-sigma BP Orbit Ref. Reference Modified
1981-Oct-27 00:15 < 00:01 Hebe 0.0319540042260805 0.0319485472073315 0.0319594612454273 3.64814476472543 3.64814471139683 2444904.510749773 0.663749030836049 272.005996999856 33.3179927583884 1.48589358494816 17943.5654949203 T 21 CATAB v2.0f-lin.ifort 2021-Apr-13 15:36:25 2021-Apr-13 15:36
2094-Mar-19 08:39 < 00:01 Juno 0.037276917456979 0.0372748082281364 0.0372790301265129 4.75981317498736 4.75981310642022 2485955.860556490 0.697004920337531 644.188689916159 48.3781160856979 81.6420587166206 113972.090063545 T 21 CATAB v2.0f-lin.ifort 2021-Apr-13 15:36:25 2021-Apr-13 15:36
Ephemeris | Orbit Diagram | Orbital Elements | Mission Design | Physical Parameters | Discovery Circumstances | Close-Approach Data ]
ABOUT SSD CREDITS/AWARDS PRIVACY/COPYRIGHT GLOSSARY LINKS
FirstGov 2021-Apr-19 01:27 UT
(server date/time)  
NASA Home Page
Site Manager:   Ryan S. Park
Webmaster  Alan B. Chamberlin